STARLINK-1403, 45701

Orbit data source: Space-Track

STARLINK-1403, 45701 is a payload satellite owned by SpaceX/Seattle (US) in LEO that was launched on Thu, 04 Jun 2020 UTC via an FALCON 9 launch vehicle from the Air Force Eastern Test Range (AFETR). Payload-class satellites include a variety of spacecraft equipped with specific instruments for various scientific and technological missions. These include communications satellites like Starlink; space stations such as the ISS; scientific satellites like the Hubble; Earth observation satellites from companies like Planet Labs, Umbra, and HawkEye 360; GPS; miniature CubeSats for education and research; and military/defense satellites.

Loading next visibility...
Identifier
45701, 2020-035AW
Orbit
LEO
Country
Flag of USUS
Related business
Manufacturer
SpaceX/Seattle
Mission
Operational Commercial Communications
Bus & Motor
STARLINK, Unknown motor
Mass
260 kg wet, ~248 kg dry
Launch date (UTC)
2020-06-04 (5 years ago)
Launch vehicle
FALCON 9
Launch site
Air Force Eastern Test Range (AFETR)
Object type
Payload
Rocket body
Debris
Shape & HBR
Box + 1 Pan, 10.1 m
Radar Cross Section
13.562 m², Large (>1 m²)

Expand to show TLE details & history
Last TLE update: 17 hours ago

TLE from 17 hours ago
0 STARLINK-1403
1 45701U 20035AW  25287.31327635  .00000413  00000-0  46617-4 0  9997
2 45701  53.0568 333.7315 0001817  89.7987 270.3211 15.06383481297087
Epoch: 2025-10-14T07:31Z
TLE epoch observation values (Epoch: 2025-10-14T07:31:07.076Z)
Latitude
0.00003°
Longitude
-162.15145°
Altitude
548.135 km
Speed
7.589 km/s
True Right ascension
22h 14m 55s
True Declination
0° 00' 00"
Sunlit
Object was in full shadow at epoch
Visualization orbit readout
Latitude
Unknown
Longitude
Unknown
Altitude
Unknown
Speed
Unknown
Apparent Right ascension
Unknown
Apparent Declination
Unknown
Sunlit
N/A
Visualization observer readout
Local Sidereal Time
19:03:06
Azimuth
Unknown
Elevation
Unknown
Doppler factor
Unknown
Orbital elements
Apogee altitude
548.791 km
Perigee altitude
546.274 km
Semi-major axis
6,925.67 km
Eccentricity
0.00018
Inclination
53.0568°
RAAN
333.7315°
Arg. of periapsis
89.7987°
True anomaly
270.30028°
Mean anomaly
270.3211°
Eccentric anomaly
270.31069°
Mean motion
3.76574 °/min
Orbital period
95.6 mins
BSTAR
0.000046617
Loading maneuver chart data...
Computing Atmospheric mass density...
Loading historical data...
Loading historical data...
Loading historical data...
Loading historical data...
Loading historical data...
Loading historical data...
Loading historical data...

Documentation

Showing up to 5 results
|